Overview Statistics Trail Chart Weather Telemetry Raw packets
 

This is the latest recevied weather packets stored in our database for station/object KC1BRV. If no packets are shown the sender has not sent any weather packets the latest 10 day(s).

<< 69 70 71 72 73 74 75 >>
Time Temp. Humidity Pressure Rain* Wind** Luminosity Snow
1788125406 23.89° C 66% 1018.6 hPa 0 mm - 52 W/m² -
1788125101 23.89° C 64% 1018.7 hPa 0 mm - 34 W/m² -
1788124801 24.44° C 65% 1018.9 hPa 0 mm - 59 W/m² -
1788124496 24.44° C 64% 1018.8 hPa 0 mm - 80 W/m² -
1788124191 24.44° C 64% 1018.9 hPa 0 mm - 87 W/m² -
1788123891 24.44° C 63% 1018.8 hPa 0 mm - 61 W/m² -
1788123589 24.44° C 64% 1018.8 hPa 0 mm - 65 W/m² -
1788123288 24.44° C 63% 1018.6 hPa 0 mm - 62 W/m² -
1788122978 24.44° C 62% 1018.6 hPa 0 mm - 87 W/m² -
1788122677 24.44° C 62% 1018.7 hPa 0 mm - 92 W/m² -
1788122372 25° C 60% 1018.8 hPa 0 mm - 79 W/m² -
1788122068 25° C 61% 1018.9 hPa 0 mm - 96 W/m² -
1788121767 25° C 59% 1018.8 hPa 0 mm - 113 W/m² -
1788121462 25° C 59% 1018.8 hPa 0 mm - 93 W/m² -
1788121153 25° C 58% 1018.9 hPa 0 mm - 143 W/m² -
1788120852 25° C 57% 1018.9 hPa 0 mm - 145 W/m² -
1788120548 25.56° C 55% 1018.8 hPa 0 mm - 134 W/m² -
1788120248 25° C 55% 1018.8 hPa 0 mm - 149 W/m² -
1788119943 25.56° C 56% 1019 hPa 0 mm - 143 W/m² -
1788119643 25.56° C 53% 1019 hPa 0 mm - 125 W/m² -
1788119341 26.11° C 53% 1019.1 hPa 0 mm - 124 W/m² -
1788119040 26.11° C 53% 1019.2 hPa 0 mm - 112 W/m² -
1788118735 26.67° C 52% 1019.2 hPa 0 mm - 157 W/m² -
1788118434 26.67° C 52% 1019.2 hPa 0 mm - 230 W/m² -
1788118130 26.67° C 54% 1019.4 hPa 0 mm - 209 W/m² -

* Rain latest hour (hover to see other rain measurements)
** Current wind speed in m/s (hover to see current wind gust speed)